Wind_Speed
23 23 23 24 26 21 15 14 13 13 12 12 11 11 10 9 8 7 7 7 6 5 5 3 2 3 4 6 8 8 9 10 9 11 11 12 13 13 13 13 14 14 14 14 13 12 12 11 11
23 21 23 27 23 17 15 15 14 15 14 14 13 12 12 10 9 8 7 7 7 7 6 5 3 3 4 6 8 8 8 9 9 11 11 12 12 13 13 13 13 14 14 13 12 12 11 11 10
23 23 26 24 18 15 14 15 15 15 15 15 14 14 13 12 10 9 9 8 8 8 8 7 5 4 4 6 7 7 8 9 10 11 11 12 12 12 13 13 13 13 12 11 11 11 10 10 9
22 26 26 20 16 15 15 15 15 15 15 15 15 15 14 13 12 11 10 9 9 9 8 8 7 5 5 6 6 7 9 9 10 10 10 11 11 10 11 12 12 12 12 11 11 10 9 9 8
23 24 20 18 15 15 15 16 15 15 16 15 15 15 15 15 13 12 11 10 10 10 9 8 7 6 6 6 7 7 8 9 9 9 10 9 10 9 10 12 11 11 11 11 11 9 8 8 7
23 19 17 15 14 14 15 15 15 15 15 16 16 17 17 16 14 13 12 11 11 10 9 8 7 6 6 8 8 9 9 9 9 9 9 9 9 10 10 11 11 10 10 9 9 9 8 7 7
20 15 13 12 13 14 13 13 14 15 16 17 17 16 16 16 15 14 13 12 11 11 10 8 7 7 7 7 8 9 10 10 9 9 9 9 8 8 8 9 10 9 9 9 9 8 7 7 7
17 13 11 10 11 12 13 13 14 15 16 17 18 17 16 16 15 15 14 13 12 11 10 9 7 7 7 7 7 8 9 9 9 9 8 8 7 8 8 9 9 8 8 8 9 8 6 6 6
13 11 10 9 9 10 12 12 14 15 16 17 17 17 16 16 15 15 15 14 13 12 11 10 8 7 7 7 7 8 7 8 8 8 8 7 7 7 7 8 8 8 8 8 7 7 6 6 6
9 9 9 8 9 9 11 13 14 15 15 16 17 17 17 16 15 15 15 14 14 13 12 11 10 9 8 7 8 7 6 7 7 7 7 7 6 6 6 7 7 7 8 7 7 7 6 6 6
5 6 6 7 7 8 10 12 14 15 15 15 16 16 16 16 16 16 15 15 14 14 13 12 11 9 9 8 7 7 6 6 6 5 5 5 4 5 6 7 7 7 6 7 7 7 7 6 5
3 4 4 5 7 9 10 11 12 13 14 15 15 16 16 16 16 16 16 15 14 13 13 12 11 10 8 8 7 7 6 6 5 5 5 4 4 4 6 6 6 6 6 6 7 6 7 6 6
2 2 3 4 6 7 9 10 10 11 12 14 15 16 17 16 15 15 15 15 14 13 12 11 10 9 8 7 7 7 6 5 5 5 5 5 5 5 5 5 5 5 4 5 6 6 6 6 6
4 3 3 4 5 6 6 7 8 9 10 12 13 15 16 16 15 15 15 14 14 13 12 11 10 9 8 7 6 5 5 4 4 4 4 4 4 3 3 3 3 3 4 6 6 5 5 5 6
5 4 3 4 5 7 6 6 7 8 10 10 12 13 15 16 15 14 14 14 13 13 12 11 11 9 8 7 6 5 5 4 4 4 3 3 2 2 2 2 2 2 4 5 5 5 4 4 5
4 4 6 6 5 8 8 9 9 10 10 9 11 12 13 14 13 13 14 14 13 13 12 12 11 10 8 7 6 6 5 5 4 3 3 2 2 2 1 2 1 1 2 4 4 4 4 4 4
4 7 8 8 7 8 7 10 10 11 10 9 9 10 12 12 11 12 13 13 13 13 12 12 11 11 9 8 7 6 6 4 4 3 3 3 2 1 0 0 1 1 2 3 4 4 4 4 5
8 10 9 9 9 8 8 10 11 11 11 10 9 9 10 10 10 11 11 11 12 12 12 11 11 11 9 8 7 6 6 5 4 3 3 3 2 1 1 1 1 1 1 2 3 4 5 5 5
11 12 12 9 9 10 10 10 10 11 10 10 10 9 8 9 8 9 10 10 10 10 10 10 10 9 9 8 7 6 6 5 4 3 3 2 2 2 1 2 2 2 2 2 3 3 5 5 5
13 14 12 9 11 12 12 12 13 12 10 10 11 10 9 8 8 8 8 9 10 10 10 10 9 9 9 8 7 6 5 5 4 3 4 3 2 2 3 2 3 3 2 2 3 4 5 7 6
15 16 15 13 14 13 14 13 14 14 12 11 11 12 11 9 9 8 8 8 8 9 10 10 10 9 9 8 8 7 6 5 4 4 4 3 3 3 4 4 4 4 4 4 4 5 5 6 7
17 15 16 15 14 15 15 17 17 16 16 13 13 12 12 11 10 9 8 8 7 8 9 10 10 9 9 9 8 8 7 6 5 4 4 4 4 4 5 4 4 4 4 5 5 6 7 7 7
17 16 17 16 16 17 16 17 16 15 16 15 14 13 12 13 12 11 9 8 8 9 9 9 10 9 9 9 9 8 7 7 7 5 5 5 5 5 5 5 6 5 5 6 6 7 8 9 9
18 18 18 17 15 18 17 17 16 16 17 17 15 15 15 14 14 13 11 10 10 10 10 9 10 10 11 10 10 9 8 8 7 7 6 6 6 7 6 7 7 7 7 7 8 9 9 10 10
18 18 17 17 18 19 16 17 19 18 18 17 16 17 18 17 16 15 13 12 11 11 11 10 10 10 10 10 10 10 9 9 9 8 8 8 8 8 8 8 8 9 9 10 10 10 11 11 11
19 19 19 19 19 19 18 19 19 20 18 18 18 19 19 18 17 16 15 14 14 13 13 12 11 11 11 11 11 11 11 11 11 10 11 11 10 10 10 10 10 10 11 12 11 11 11 12 13
21 20 19 21 22 22 20 20 21 20 19 19 19 19 18 17 19 18 17 17 17 16 15 14 13 13 13 13 13 12 12 12 13 13 13 13 13 13 12 12 12 12 12 13 13 12 13 13 13
23 22 21 22 24 23 21 22 23 23 22 22 20 19 19 19 20 20 20 19 19 18 18 17 15 15 14 15 15 15 15 15 16 16 15 15 15 15 15 14 14 14 14 15 15 14 14 15 15
23 24 25 25 24 23 23 24 24 24 23 22 21 20 21 20 21 23 22 21 19 18 18 17 17 17 16 16 17 17 17 17 18 18 18 17 18 18 17 16 15 15 16 16 16 16 16 16 17
24 25 25 26 26 25 24 26 25 25 25 25 25 22 20 21 23 24 22 21 21 21 21 19 19 19 19 18 18 19 19 19 20 20 20 19 20 20 20 18 17 18 18 18 19 19 18 18 18
Wind_Direction
63 62 60 57 49 40 34 34 35 36 35 32 31 30 29 25 22 18 13 11 13 16 25 33 102 116 141 148 152 150 150 152 152 152 153 151 152 153 153 159 160 156 151 147 149 151 151 148 143
65 63 59 53 49 36 31 32 36 36 32 32 31 31 32 31 30 28 25 26 29 34 44 53 69 95 117 135 144 143 146 150 154 157 154 151 153 154 153 156 158 155 150 151 153 152 152 152 151
66 61 55 51 42 37 36 35 35 33 31 32 35 33 33 34 36 36 36 38 39 44 51 58 68 87 115 128 138 145 149 152 153 153 150 146 150 153 153 156 155 153 152 155 153 151 152 153 155
65 59 55 53 42 35 36 37 36 34 34 35 35 34 34 36 38 40 41 43 50 50 51 59 68 86 114 124 135 143 147 147 148 151 153 148 147 148 152 152 153 155 154 154 151 148 150 153 155
64 57 52 49 38 33 36 37 37 35 37 39 38 37 36 37 38 42 44 46 54 53 54 62 70 83 104 113 126 137 143 144 144 146 154 151 148 146 154 157 157 159 157 158 160 158 157 153 158
65 52 50 47 37 29 35 36 36 36 38 40 40 38 38 38 39 42 47 48 53 54 57 68 78 86 99 106 110 122 138 143 144 147 152 152 150 149 151 156 157 159 156 159 164 164 162 160 162
71 53 45 44 31 29 32 36 37 35 36 37 39 37 37 38 39 41 46 49 49 52 59 66 77 92 99 102 108 118 130 140 142 146 150 151 153 158 161 160 161 160 160 164 168 169 168 169 169
76 61 53 45 36 28 29 33 36 38 37 36 36 36 36 38 40 42 45 48 48 49 55 56 65 84 94 100 105 118 130 137 142 147 149 149 151 153 157 165 169 170 173 175 175 173 171 170 174
71 59 55 46 37 32 31 31 33 36 37 36 36 37 37 38 41 44 45 45 48 50 52 53 56 74 86 96 108 118 127 137 140 142 146 145 148 147 150 161 164 166 172 175 175 174 172 171 173
51 41 45 34 33 36 30 30 32 30 32 33 32 36 38 39 41 43 44 44 46 49 51 57 59 70 81 93 104 109 119 131 139 142 148 150 159 160 159 166 170 169 168 174 172 174 171 171 174
49 38 42 37 25 31 38 33 33 28 27 27 29 33 35 37 41 43 43 43 43 46 50 58 64 67 76 89 91 96 105 116 126 133 147 152 161 166 171 169 173 173 174 175 172 176 176 179 183
23 21 28 27 22 21 32 33 32 31 25 25 28 31 32 32 34 38 40 41 42 44 47 54 60 65 73 81 86 89 95 101 110 121 134 143 152 161 171 170 170 170 176 181 176 173 183 186 187
300 334 349 2 8 16 26 28 23 27 25 26 27 27 31 32 35 38 38 39 40 42 45 52 56 60 65 70 75 84 91 96 102 105 119 138 151 150 160 163 160 162 170 177 175 179 189 193 188
267 290 323 336 345 354 15 20 20 17 21 20 24 25 29 31 34 38 39 39 39 41 43 47 48 52 55 60 65 72 79 89 99 100 110 119 130 142 136 147 155 169 167 169 173 181 194 200 196
260 284 302 309 331 327 337 353 0 6 7 12 17 20 24 28 33 37 39 39 39 40 40 42 44 47 48 49 54 60 64 74 84 90 101 110 109 113 131 152 161 172 179 183 183 187 190 198 205
259 272 279 282 291 305 325 326 346 352 352 1 9 11 19 25 33 36 37 37 38 39 38 38 40 42 46 45 47 54 58 64 68 74 70 81 90 103 139 166 185 179 186 186 192 200 204 210 218
263 270 266 281 289 298 310 316 329 334 337 354 358 3 10 20 29 31 32 32 34 37 37 36 37 37 41 41 40 44 47 52 57 62 61 58 69 82 41 22 251 230 213 204 207 215 228 236 244
244 257 254 256 272 283 286 291 309 324 327 334 340 351 360 11 18 23 24 25 27 31 33 33 32 34 34 35 33 32 34 41 45 47 51 42 41 29 341 357 349 297 230 228 235 236 246 251 252
244 254 258 252 260 271 270 273 282 300 309 311 319 332 344 359 7 11 16 17 17 18 21 24 25 25 25 24 26 25 26 34 33 27 21 15 6 347 305 307 326 301 282 276 266 258 263 261 255
244 251 256 258 254 262 267 265 270 284 291 294 303 312 320 339 353 358 1 7 10 9 11 12 12 12 12 13 14 15 14 10 10 8 8 356 317 304 313 300 307 303 296 289 280 276 272 270 272
247 246 246 250 250 255 262 268 265 269 273 279 289 299 305 315 331 343 344 350 358 360 360 2 2 360 359 360 4 1 354 356 1 356 351 337 313 309 316 319 317 302 299 288 283 282 283 287 288
245 244 249 248 252 257 254 260 265 264 276 273 280 287 297 302 307 320 329 329 336 344 349 352 352 351 353 352 349 351 346 341 342 335 331 331 322 312 313 317 321 312 300 297 295 293 291 293 291
242 242 249 250 248 253 251 256 264 266 269 274 280 279 280 287 293 301 310 314 315 322 332 342 346 348 349 346 341 338 338 335 333 327 325 322 322 317 311 302 308 308 303 301 301 300 296 293 289
240 243 250 253 254 256 256 255 255 256 265 264 272 275 277 281 285 287 294 300 303 307 313 321 330 335 337 337 338 335 331 328 326 324 325 324 319 317 313 303 296 298 299 297 301 301 295 292 292
246 245 248 251 254 258 262 256 255 254 256 259 261 262 269 272 275 277 279 288 292 297 300 304 310 316 322 323 328 327 322 322 320 319 319 317 316 313 306 305 299 298 298 300 301 295 293 294 295
242 242 243 246 252 263 260 252 251 252 253 254 256 259 261 265 270 276 277 279 281 285 292 296 298 301 305 310 314 317 315 311 313 313 314 314 312 309 304 302 301 299 297 297 296 293 297 297 297
241 241 242 249 252 260 259 257 256 254 260 259 256 259 262 262 267 272 272 275 279 277 280 285 290 293 294 298 302 305 308 307 310 309 306 309 310 309 305 300 295 294 293 294 293 293 294 295 294
242 240 241 244 248 254 259 261 261 261 259 264 261 259 264 266 268 270 270 272 277 274 274 279 282 287 290 292 294 296 298 301 302 305 304 303 305 307 306 301 295 293 292 290 289 289 288 291 293
245 241 239 241 241 248 255 258 260 265 263 263 264 262 263 265 268 271 271 268 273 277 277 276 279 283 286 288 291 291 292 295 298 298 297 298 303 304 301 296 293 294 294 290 289 287 286 287 289
245 244 240 240 241 241 249 259 260 261 263 262 261 261 260 264 266 270 271 267 266 271 276 275 277 277 280 284 286 288 288 289 291 293 293 293 295 298 297 292 285 286 290 290 290 288 285 284 285
Height
5881 5879 5877 5876 5874 5876 5875 5874 5872 5869 5868 5866 5864 5862 5860 5859 5859 5860 5856 5854 5853 5852 5851 5851 5851 5851 5851 5852 5853 5854 5855 5856 5857 5859 5860 5862 5864 5865 5867 5869 5870 5872 5874 5876 5878 5880 5881 5883 5884
5884 5882 5879 5877 5879 5880 5879 5876 5874 5872 5870 5868 5866 5864 5862 5860 5859 5858 5856 5855 5854 5853 5852 5852 5852 5852 5853 5853 5854 5855 5856 5858 5859 5860 5862 5863 5865 5866 5868 5870 5872 5873 5875 5877 5879 5881 5882 5884 5885
5887 5883 5880 5882 5885 5884 5882 5879 5877 5874 5872 5870 5868 5866 5864 5862 5860 5859 5857 5856 5855 5854 5854 5853 5853 5854 5854 5854 5855 5856 5857 5859 5860 5862 5863 5864 5866 5867 5869 5870 5872 5874 5876 5878 5880 5881 5883 5885 5886
5888 5885 5886 5889 5888 5887 5885 5882 5879 5877 5874 5872 5870 5868 5865 5864 5862 5861 5859 5858 5857 5856 5855 5855 5854 5855 5855 5855 5856 5857 5859 5860 5862 5864 5865 5866 5867 5869 5870 5872 5874 5876 5877 5879 5881 5883 5884 5886 5887
5888 5888 5891 5892 5891 5890 5887 5885 5882 5880 5877 5875 5873 5870 5867 5865 5864 5862 5860 5859 5858 5857 5856 5856 5856 5856 5856 5856 5857 5857 5859 5861 5863 5865 5866 5868 5869 5870 5872 5873 5875 5877 5879 5880 5882 5883 5885 5886 5888
5890 5894 5896 5895 5895 5893 5890 5887 5885 5882 5879 5877 5875 5872 5870 5868 5865 5864 5862 5861 5860 5859 5858 5858 5858 5858 5858 5858 5858 5857 5860 5863 5865 5866 5868 5869 5870 5872 5873 5875 5876 5878 5880 5881 5883 5884 5885 5887 5888
5896 5899 5899 5899 5898 5896 5893 5890 5888 5885 5882 5879 5877 5875 5872 5870 5868 5866 5864 5863 5862 5861 5860 5860 5860 5859 5860 5860 5860 5861 5862 5864 5866 5868 5869 5870 5871 5873 5874 5875 5877 5879 5880 5882 5883 5885 5886 5888 5889
5900 5903 5902 5902 5900 5898 5896 5893 5890 5888 5885 5882 5879 5877 5875 5872 5870 5868 5866 5865 5864 5863 5862 5862 5861 5861 5861 5862 5862 5864 5865 5866 5868 5869 5870 5871 5872 5873 5875 5876 5877 5879 5881 5883 5884 5885 5887 5888 5889
5904 5905 5904 5904 5903 5900 5898 5895 5893 5890 5887 5885 5882 5880 5878 5875 5873 5871 5869 5868 5866 5865 5865 5864 5864 5863 5863 5864 5864 5866 5867 5868 5869 5870 5871 5872 5873 5874 5875 5877 5879 5880 5881 5883 5885 5886 5887 5888 5890
5908 5907 5907 5906 5905 5902 5900 5897 5895 5892 5890 5887 5885 5883 5880 5878 5875 5873 5872 5870 5869 5868 5867 5866 5866 5866 5866 5866 5866 5868 5868 5869 5871 5872 5872 5873 5874 5875 5876 5877 5879 5880 5882 5883 5885 5886 5888 5889 5890
5911 5910 5909 5908 5906 5904 5901 5899 5897 5895 5893 5890 5888 5885 5883 5881 5878 5876 5874 5873 5872 5871 5870 5869 5869 5868 5868 5869 5869 5870 5870 5871 5872 5873 5874 5874 5875 5876 5877 5878 5879 5881 5882 5884 5885 5887 5888 5889 5890
5912 5911 5910 5909 5907 5905 5903 5902 5900 5898 5896 5893 5890 5888 5885 5883 5880 5878 5877 5876 5874 5873 5873 5872 5871 5871 5871 5871 5871 5872 5872 5872 5873 5874 5875 5876 5876 5877 5878 5879 5880 5881 5883 5884 5886 5887 5888 5889 5890
5912 5912 5911 5910 5909 5907 5905 5904 5902 5900 5898 5895 5893 5890 5888 5885 5883 5881 5880 5878 5877 5876 5875 5874 5874 5873 5873 5873 5873 5873 5874 5874 5875 5875 5876 5877 5878 5878 5879 5879 5880 5882 5883 5885 5886 5887 5888 5889 5890
5911 5910 5910 5910 5909 5908 5907 5905 5903 5901 5899 5897 5895 5892 5890 5888 5886 5884 5882 5881 5879 5878 5877 5876 5876 5875 5875 5875 5875 5875 5875 5876 5876 5877 5877 5878 5878 5879 5880 5880 5881 5882 5884 5885 5886 5887 5888 5889 5890
5909 5910 5910 5910 5909 5909 5907 5906 5903 5902 5900 5898 5896 5894 5892 5890 5888 5887 5885 5883 5882 5880 5879 5878 5878 5877 5877 5876 5876 5876 5877 5877 5877 5878 5878 5878 5879 5880 5881 5881 5882 5883 5884 5885 5886 5887 5888 5889 5890
5908 5909 5909 5909 5909 5910 5909 5906 5904 5903 5901 5899 5897 5896 5894 5892 5891 5889 5888 5886 5884 5883 5882 5881 5880 5879 5879 5878 5878 5878 5878 5878 5878 5878 5879 5879 5880 5881 5881 5882 5882 5883 5884 5885 5886 5887 5887 5888 5889
5906 5908 5908 5909 5909 5910 5909 5907 5905 5903 5901 5899 5899 5897 5896 5894 5893 5891 5890 5888 5886 5885 5884 5883 5882 5881 5880 5880 5880 5879 5879 5879 5879 5880 5880 5880 5880 5881 5882 5882 5882 5883 5884 5885 5886 5886 5887 5888 5888
5906 5907 5907 5908 5908 5909 5909 5907 5905 5904 5903 5900 5899 5898 5897 5895 5894 5893 5891 5890 5889 5887 5886 5885 5884 5883 5882 5881 5881 5881 5880 5880 5881 5881 5881 5881 5882 5882 5882 5882 5882 5883 5884 5885 5885 5886 5886 5887 5887
5903 5905 5905 5906 5906 5908 5908 5907 5905 5904 5904 5902 5900 5898 5897 5896 5895 5894 5892 5891 5890 5889 5888 5887 5886 5885 5884 5883 5882 5882 5882 5881 5882 5882 5882 5882 5882 5882 5882 5883 5883 5883 5884 5884 5884 5885 5885 5886 5886
5901 5903 5904 5905 5905 5906 5906 5905 5904 5904 5903 5901 5900 5898 5897 5895 5895 5894 5893 5892 5891 5890 5889 5888 5887 5886 5885 5884 5884 5883 5883 5882 5882 5882 5883 5883 5883 5883 5883 5883 5883 5883 5884 5884 5884 5884 5884 5885 5885
5898 5901 5902 5902 5903 5903 5904 5903 5902 5901 5900 5900 5899 5898 5896 5895 5895 5894 5893 5892 5892 5891 5890 5889 5888 5887 5886 5885 5884 5884 5883 5883 5883 5883 5883 5883 5883 5883 5883 5883 5883 5883 5884 5884 5884 5884 5883 5884 5884
5895 5897 5898 5899 5899 5900 5901 5900 5899 5898 5897 5897 5897 5896 5895 5894 5894 5893 5892 5892 5891 5891 5890 5889 5888 5887 5886 5885 5885 5884 5884 5883 5883 5883 5883 5883 5883 5883 5883 5883 5883 5883 5883 5883 5883 5883 5883 5882 5882
5891 5893 5894 5894 5895 5896 5897 5896 5896 5895 5895 5895 5895 5894 5894 5893 5892 5891 5891 5891 5890 5890 5889 5889 5888 5886 5885 5885 5884 5883 5883 5883 5883 5882 5882 5882 5882 5882 5882 5882 5882 5882 5882 5882 5882 5881 5881 5881 5881
5887 5889 5890 5890 5891 5892 5893 5893 5892 5891 5892 5891 5892 5892 5891 5891 5890 5889 5889 5889 5889 5888 5888 5888 5887 5886 5885 5885 5884 5883 5883 5882 5882 5882 5881 5881 5881 5881 5881 5881 5880 5881 5880 5880 5880 5880 5880 5879 5879
5883 5885 5886 5887 5888 5888 5889 5890 5890 5888 5888 5887 5888 5889 5889 5888 5888 5887 5887 5887 5886 5886 5886 5886 5886 5885 5885 5884 5883 5883 5882 5882 5881 5881 5880 5880 5880 5879 5879 5879 5878 5878 5878 5878 5878 5878 5877 5877 5877
5878 5881 5882 5884 5885 5885 5886 5885 5886 5883 5883 5883 5884 5884 5884 5884 5884 5884 5883 5883 5884 5883 5883 5883 5883 5883 5883 5883 5882 5882 5881 5880 5879 5879 5879 5878 5878 5877 5877 5876 5876 5876 5876 5876 5875 5875 5875 5875 5874
5872 5874 5878 5880 5880 5880 5880 5881 5880 5879 5879 5880 5880 5879 5880 5881 5881 5880 5880 5880 5880 5880 5880 5880 5880 5881 5881 5880 5880 5879 5879 5878 5877 5876 5877 5876 5876 5875 5874 5873 5873 5873 5873 5873 5872 5872 5872 5872 5871
5867 5869 5872 5873 5875 5876 5877 5877 5876 5875 5875 5875 5875 5876 5877 5877 5877 5876 5876 5877 5876 5876 5876 5877 5877 5877 5877 5877 5876 5876 5876 5876 5875 5874 5874 5874 5873 5872 5871 5870 5870 5870 5869 5869 5869 5868 5868 5868 5867
5862 5864 5865 5867 5869 5870 5872 5873 5871 5870 5870 5870 5870 5871 5872 5873 5873 5872 5872 5872 5871 5871 5872 5872 5872 5872 5872 5872 5872 5872 5872 5872 5872 5871 5870 5870 5869 5868 5868 5867 5866 5866 5865 5865 5864 5864 5864 5864 5863
5855 5857 5859 5860 5861 5864 5866 5867 5864 5864 5864 5865 5865 5865 5865 5867 5868 5867 5866 5867 5866 5867 5867 5866 5866 5867 5868 5868 5868 5868 5868 5868 5867 5867 5866 5865 5865 5864 5862 5862 5861 5861 5861 5860 5860 5860 5859 5859 5859